User: anonymous   Login
Location: Unspecified
(0.0000°N, 0.0000°E)
Time: 00:19:26
(UTC+00:00)
Language:

USA-170 - Orbit

View from above orbital plane
View from above orbital plane
View from above satellite
View from above satellite

Ground track
Ground track

The orbit data is extracted from the following two-line orbital elements,

1 27875U 03040A   17084.80479128 0.00000000  00000-0  00000-0 0    08
2 27875   3.5682  70.5876 0004403  45.7989 314.2605  1.00270000    02
Epoch (UTC): 25 March 2017 19:18:53
Eccentricity: 0.0004403
inclination: 3.5682°
perigee height: 35768 km
apogee height: 35805 km
right ascension of ascending node: 70.5876°
argument of perigee: 45.7989°
revolutions per day: 1.00270000
mean anomaly at epoch: 314.2605°
orbit number at epoch: 0

The dashed part of the orbit path shows where the satellite is in the earth's shadow,  

DLR